Location: Beugnon
(47.6222°N, 3.7850°E)
Time: 13:33:02
(UTC+00:00)

Cosmos 1980 Rocket - Pass Details

Date: 09 April 2020
Orbit: 829 x 850 km, 71.0° (Epoch: 25 May)

Event Time Altitude Azimuth Distance (km) Brightness Sun altitude
Rises 23:20:45 0° 320° (NW) 3,391 6.1 -34.1°
Reaches altitude 10° 23:23:50 10° 304° (NW) 2,455 5.0 -34.1°
Enters shadow 23:25:53 17° 284° (WNW) 2,022 4.3 -34.2°
